Flag for Honduras Weather past 2 weeks in Choloma, Honduras

Now
77 °F

Passing clouds.


Feels Like: 78 °F
Forecast: 76 / 86 °F
Wind: 2 mph from North

Location: La Mesa San Pedro Sula

Current Time: Oct 23, 2014 at 6:02:25 AM

Latest Report: Oct 23, 2014 at 5:00 AM


Visibility: N/A

Pressure: 29.80 "Hg

Humidity: 94%

Dew point: 75 °F

Location of CholomaLocation

Historic Weather in Choloma — Graph

°F

Choloma temperature yesterday

Maximum temperature yesterday: 91 °F (at 12:00 PM)
Minimum temperature yesterday: 77 °F (at 1:00 AM)
Average temperature yesterday: 84 °F

Past Weeks' High & Low Weather Summary

 TemperatureHumidityPressure
High95 °F (Oct 21, 2:00 PM)100% (Oct 8, 5:00 AM)29.98 "Hg (Oct 8, 5:00 AM)
Low73 °F (Oct 8, 5:00 AM)43% (Oct 19, 4:00 PM)29.65 "Hg (Oct 21, 3:00 PM)
Average81 °F87%29.85 "Hg
* Reported Oct 8 5:00 AM — Oct 23 5:00 AM, Choloma, Weather by CustomWeather, © 2014

Note: Actual official high and low records may vary slightly from our data, if they occured in-between our weather recording intervals... More about our weather records

Advertising

Choloma weather history for previous 24 hours

 ConditionsComfort  
Time TempWeatherWind HumidityBarometerVisibility
5:00 AM
Oct 23
77 °FPassing clouds.2 mph94%29.80 "HgN/A
4:00 AM77 °FPassing clouds.5 mph94%29.77 "HgN/A
3:00 AM77 °FPassing clouds.6 mph100%29.77 "HgN/A
12:00 AM77 °FPassing clouds.No wind100%29.80 "HgN/A
10:00 PM
Oct 22
79 °FPassing clouds.No wind100%29.80 "HgN/A
9:00 PM81 °FPassing clouds.No wind94%29.80 "HgN/A
8:00 PM81 °FPassing clouds.No wind94%29.77 "HgN/A
7:00 PM82 °FPassing clouds.5 mph89%29.74 "HgN/A
6:00 PM86 °FPassing clouds.5 mph70%29.71 "HgN/A
5:00 PM91 °FPartly sunny.No wind59%29.68 "HgN/A
4:00 PM91 °FPartly sunny.6 mph59%29.68 "HgN/A
3:00 PM91 °FPartly sunny.8 mph59%29.68 "HgN/A
2:00 PM91 °FPartly sunny.8 mph56%29.71 "HgN/A
1:00 PM90 °FPartly sunny.14 mph59%29.74 "HgN/A
12:00 PM91 °FPartly sunny.14 mph56%29.77 "HgN/A
11:00 AM90 °FPartly sunny.20 mph55%29.80 "HgN/A
10:00 AM88 °FPartly sunny.15 mph62%29.83 "HgN/A
9:00 AM86 °FPartly sunny.12 mph70%29.83 "HgN/A
8:00 AM82 °FPartly sunny.9 mph74%29.80 "HgN/A
7:00 AM79 °FPartly sunny.8 mph89%29.80 "HgN/A
6:00 AM77 °FPartly sunny.7 mph94%29.74 "HgN/A
Weather by CustomWeather, © 2014

See weather overviewHow to use our weather pages